Location: ????????
(60.3580°N, 46.5699°E)
Time: 14:21:30
(UTC+00:00)

Daily predictions for brighter satellites

Satellite Brightness Start Highest point End
(mag) Time Altitude Azimuth Time Altitude Azimuth Time Altitude Azimuth
RESURS DK-1 4.0 13:42:20 10° WNW 13:45:41 22° N 13:49:02 10° NE
Cosmos 1892 3.6 13:42:41 10° N 13:46:07 28° ENE 13:49:31 10° ESE
Cosmos 1758 4.0 13:43:05 10° SSW 13:47:09 59° WNW 13:51:13 10° N
Cosmos 1486 Rocket 4.1 13:42:17 10° NNW 13:47:38 65° NE 13:52:56 10° SE
Cosmos 2297 4.5 13:42:18 10° WSW 13:47:46 48° NW 13:53:15 10° NE
H-2A R/B 2.4 13:44:51 10° NNE 13:48:53 43° E 13:52:49 10° S
Meteor 2-21 Rocket 4.5 13:43:26 10° NNW 13:49:39 71° ENE 13:55:47 10° SSE
Cosmos 304 Rocket 3.8 13:44:52 10° SSW 13:49:39 76° ESE 13:54:29 10° NE
COSMO-SKYMED 1 4.1 13:47:05 10° NE 13:49:49 16° E 13:52:32 10° ESE
Meteor 2-10 4.2 13:47:03 10° SSW 13:52:06 77° WNW 13:57:12 10° NNE
Envisat 3.4 13:47:01 10° S 13:52:06 73° WSW 13:57:13 10° NNW
Cosmos 1908 3.3 13:48:34 10° S 13:52:21 58° E 13:56:13 10° NNE
Radarsat Rocket 4.3 13:46:53 10° SSE 13:52:46 71° WSW 13:58:40 10° NNW
Landsat 5 3.5 13:49:25 10° NNE 13:53:13 52° ESE 13:57:05 10° S
Cosmos 1939 Rocket 3.3 13:49:53 10° SE 13:53:31 37° ENE 13:57:07 10° N
Cosmos 1697 Rocket 4.5 13:52:48 10° ESE 13:53:46 10° E 13:54:45 10° E
Cosmos 1825 Rocket 3.6 13:51:56 10° NNW 13:56:27 90° ESE 14:00:53 10° SSE
Cosmos 1503 Rocket 4.2 13:52:39 10° NNW 13:57:46 53° NE 14:02:55 10° SE
Cosmos 2263 4.4 13:54:52 10° SW 14:00:40 84° NW 14:06:26 10° NE
Cosmos 1825 3.4 13:59:02 10° N 14:02:03 22° ENE 14:05:03 10° ESE
Cosmos 1300 3.4 14:00:35 10° SSE 14:04:00 32° E 14:07:27 10° NNE
CZ-4B R/B 2.4 14:01:24 10° NE 14:04:07 24° E 14:06:46 10° SSE
Cosmos 1400 Rocket 4.0 14:01:11 10° SE 14:04:25 23° E 14:07:39 10° NE
ERS-2 3.0 14:01:54 10° NE 14:05:07 28° E 14:08:18 10° SSE
Cosmos 2056 Rocket 4.0 14:00:28 10° SW 14:05:33 59° NW 14:10:38 10° NNE
NOAA 11 4.2 14:01:15 10° SSE 14:06:41 75° ENE 14:12:08 10° NNW
Cosmos 2279 Rocket 4.4 14:02:59 10° SSW 14:09:13 71° WNW 14:15:28 10° NNE
Helios 1A Rocket 3.3 14:06:19 10° SE 14:10:11 41° ENE 14:14:03 10° N
Cosmos 1354 Rocket 4.1 14:05:20 10° NNW 14:10:32 56° NE 14:15:43 10° SE
Cosmos 2297 Rocket 2.6 14:05:01 10° NW 14:10:40 70° WSW 14:16:19 10° SSE
YAOGAN 1 3.2 14:06:53 10° ESE 14:10:48 34° ENE 14:14:44 10° N
Timation 1 Rocket 4.4 14:05:01 10° NW 14:11:02 67° NE 14:17:03 10° ESE
In-Cosmos 22 Rocket 4.1 14:07:12 10° NNW 14:12:32 65° ENE 14:17:56 10° SSE
Cosmos 44 4.3 14:08:57 10° S 14:12:51 28° ESE 14:16:35 12° ENE
Cosmos 1340 2.6 14:09:49 10° NNW 14:13:37 67° ENE 14:17:22 10° SSE
Cosmos 2369 Rocket 2.7 14:08:55 10° WSW 14:14:35 62° NW 14:20:18 10° NE
CORIOLIS 4.4 14:11:00 10° SSE 14:16:22 75° WSW 14:21:47 10° NNW
Aureole 3 3.9 14:14:04 10° SE 14:16:24 21° E 14:18:50 10° NE
Okean O Rocket 2.2 14:12:45 10° S 14:17:05 63° WSW 14:21:26 10° NNW
SL-16 R/B 4.2 14:12:58 10° NNE 14:18:09 29° NW 14:23:21 10° W
Cosmos 2228 3.1 14:14:21 10° S 14:18:31 55° E 14:22:45 10° NNE
Cosmos 1726 Rocket 3.8 14:14:42 10° SSE 14:18:53 45° E 14:23:07 10° NNE
Cosmos 2058 3.3 14:15:17 10° N 14:19:12 41° ENE 14:23:05 10° SE
Cosmos 1346 Rocket 3.1 14:15:57 10° N 14:19:50 46° ENE 14:23:42 10° SE
CZ-2D R/B 3.5 14:16:20 10° SE 14:19:59 46° ENE 14:23:40 10° N
Resurs 01 Rocket 3.7 14:19:34 10° NE 14:20:08 10° NE 14:20:42 10° NNE
Cosmos 2151 4.1 14:17:44 10° N 14:21:08 23° ENE 14:24:18 11° ESE
CZ-4 R/B 1.7 14:17:44 10° SE 14:21:22 40° ENE 14:25:00 10° N
Cosmos 1452 Rocket 3.6 14:16:13 10° SSW 14:21:31 89° WNW 14:26:51 10° NNE
SL-4 R/B 3.7 14:19:01 10° SW 14:21:42 20° S 14:24:29 10° SE
NOSS 3-4 (A) 3.7 14:16:04 10° WNW 14:22:38 86° NNE 14:30:00 10° ESE
NOSS 3-4 (C) 3.7 14:16:10 10° WNW 14:22:44 86° NNE 14:30:06 10° ESE
EP 3 4.2 14:21:35 10° W 14:23:29 44° NNW 14:24:41 19° NE
Cosmos 1553 Rocket 4.5 14:18:43 10° SSE 14:24:27 38° E 14:30:06 10° NNE
CZ-2C R/B 3.5 14:20:00 10° SE 14:25:28 49° ENE 14:30:43 10° NNW
Cosmos 2227 4.5 14:22:00 10° NW 14:27:30 49° NE 14:32:42 11° ESE
Cosmos 1356 Rocket 4.0 14:23:53 10° SSW 14:28:10 63° WNW 14:32:28 10° NNE
Genesis I 3.8 14:27:59 10° W 14:31:45 47° N 14:34:37 16° ENE
Cosmos 1953 3.6 14:28:30 10° SW 14:32:18 43° WNW 14:36:09 10° N
Cosmos 371 Rocket 4.4 14:27:52 10° WSW 14:32:30 43° NW 14:37:11 10° NNE
NOSS 2-1 (C) 3.2 14:30:51 10° WSW 14:34:20 83° NNW 14:37:33 16° ENE
Cosmos 1606 Rocket 3.5 14:30:52 10° S 14:35:14 72° E 14:39:42 10° NNE
SL-08 R/B 4.4 14:29:50 10° NNW 14:36:05 76° ENE 14:42:13 10° SSE
Ariane Rocket 4.1 14:33:16 15° E 14:36:23 26° NE 14:40:33 10° N
Meteor 2-10 Rocket 4.3 14:32:40 10° SSE 14:37:04 29° E 14:41:23 10° NNE
Cosmos 1315 Rocket 4.1 14:35:08 10° SE 14:38:05 20° E 14:39:57 15° NE
SKYMED 2 4.2 14:34:25 10° NNE 14:38:26 34° E 14:42:25 10° SSE
NOSS 2-1 (D) 3.2 14:36:07 10° WSW 14:39:36 80° NNW 14:42:41 18° ENE
Cosmos 1943 Rocket 3.2 14:35:54 10° W 14:41:07 41° NNW 14:46:21 10° NE
USA 215 3.4 14:35:28 13° E 14:41:19 69° S 14:47:52 10° W
Aureole 3 Rocket 3.8 14:36:53 10° SSE 14:41:29 53° E 14:47:58 10° NNE
Cosmos 1745 Rocket 4.0 14:36:00 10° NNW 14:42:17 66° ENE 14:48:35 10° SSE
Cosmos 2219 4.4 14:38:23 10° NW 14:43:52 46° WSW 14:49:19 10° S
Cosmos 292 Rocket 3.9 14:39:40 10° SSW 14:44:23 56° ESE 14:49:09 10° NE
ATLAS 2AS CENTAUR R/B 2.9 14:36:50 10° WNW 14:44:41 87° NNE 14:51:22 13° ESE
Cosmos 1726 4.4 14:42:08 10° WSW 14:45:16 25° WNW 14:48:25 10° N
SeaSat 1 2.6 14:41:02 12° ESE 14:45:36 58° NE 14:50:28 10° NW
MOS 1 Rocket 4.4 14:42:51 10° NE 14:46:27 22° E 14:50:11 10° SE
H-2A R/B 2.3 14:41:28 10° SE 14:46:44 52° ENE 14:52:02 10° NNW
CZ-4C R/B 4.1 14:44:27 10° N 14:47:34 43° WNW 14:50:44 10° SW
Cosmos 1441 Rocket 4.4 14:45:39 10° N 14:48:51 24° NE 14:49:34 22° ENE
COSMOS 2455 3.5 14:43:26 10° WNW 14:49:15 45° N 14:53:27 18° ENE
ATLAS 5 CENTAUR R/B 2.0 14:46:15 10° W 14:50:47 68° NNW 14:54:31 19° ENE
Meteor 2-3 Rocket 4.3 14:45:35 10° N 14:50:50 36° NE 14:54:57 16° ESE
Cosmos 1386 Rocket 4.5 14:44:57 10° NNW 14:51:24 71° ENE 14:57:46 10° SSE
Cosmos 2082 4.0 14:45:41 10° NW 14:51:25 72° SW 14:57:08 10° SSE
Cosmos 1455 3.2 14:48:17 10° SE 14:51:27 25° E 14:53:32 16° NE
Okean-O 2.5 14:49:31 10° SSE 14:53:58 81° ENE 14:58:27 10° NNW
Cosmos 1331 Rocket 3.9 14:49:00 10° SSW 14:54:10 77° ESE 14:59:21 10° NE
Cosmos 2278 Rocket 3.5 14:52:40 10° WNW 14:57:33 28° N 15:01:18 15° NE
Lacrosse 5 2.2 14:53:33 10° W 14:58:33 60° S 15:01:48 21° ESE
ADEOS Rocket 3.5 14:53:58 10° NNE 15:00:09 70° WNW 15:07:01 10° SW
Cosmos 968 Rocket 4.3 14:55:22 10° NW 15:00:28 53° WSW 15:05:30 10° S
GEOS 3 Rocket 3.9 14:55:11 10° SE 15:00:34 73° SW 15:06:01 10° WNW
ARGOS 3.3 14:55:35 10° SE 15:00:50 52° ENE 15:06:07 10° NNW
OBJECT-B 3.2 15:02:34 12° NNE 15:02:34 12° NNE 15:03:02 10° NNE
Cosmos 1656 Rocket 4.4 14:56:06 10° WSW 15:01:38 54° NW 15:07:15 10° NE
Cosmos 1656 4.0 14:58:15 10° S 15:03:30 43° ESE 15:07:45 16° NE
Cosmos 1844 Rocket 3.5 15:00:18 10° NW 15:05:33 36° NNE 15:08:21 23° ENE
Cosmos 1408 2.5 15:03:05 10° NNW 15:06:46 87° WSW 15:10:26 10° SSE
Cosmos 1709 Rocket 4.0 15:05:26 10° NNW 15:11:48 65° ENE 15:18:09 10° SSE
GENESIS II 4.3 15:07:49 10° SW 15:11:50 64° SE 15:13:31 32° ENE
SL-08 RB Rocket 4.0 15:09:57 25° ESE 15:12:09 42° ENE 15:16:26 10° N
Cosmos 2058 Rocket 3.0 15:08:26 10° S 15:12:57 83° ESE 15:17:31 10° NNE
Cosmos 2369 4.5 15:09:10 10° SSE 15:13:59 29° ESE 15:15:13 27° E
CZ-4C R/B 2.7 15:07:46 10° WNW 15:14:11 82° NNE 15:19:15 23° ESE
Cosmos 1777 Rocket 3.9 15:08:59 10° NNW 15:14:13 70° NE 15:18:02 19° SE
Cosmos 2227 Rocket 3.7 15:09:45 10° NW 15:14:55 37° WSW 15:20:03 10° S
Cosmos 1076 Rocket 3.4 15:11:49 10° NNW 15:16:06 88° E 15:20:22 10° SSE
ERBS 3.0 15:13:43 10° W 15:16:55 43° S 15:17:55 32° SE
Cosmos 2263 Rocket 2.2 15:12:05 10° NW 15:17:48 75° NE 15:21:42 21° SE
Cosmos 1689 Rocket 1.9 15:17:46 60° E 15:17:51 60° ESE 15:20:42 10° S
HJ-1C 3.3 15:16:24 29° SE 15:17:54 63° ENE 15:21:16 10° N
SJ 16-02 2.2 15:14:53 10° NNW 15:18:55 33° NE 15:19:45 30° ENE
Cosmos 1818 3.8 15:16:18 10° WSW 15:21:45 66° NNW 15:25:06 24° ENE
Cosmos 1892 3.8 15:18:14 10° NNW 15:21:59 48° W 15:25:44 10° S
CSL-04 Rocket 3.6 15:16:27 10° SSE 15:21:59 83° ENE 15:27:30 10° NNW
Cosmos 1844 4.4 15:18:05 10° NW 15:23:16 37° NNE 15:25:24 28° ENE
Cosmos 1110 Rocket 4.2 15:19:34 10° SW 15:24:48 70° NW 15:30:01 10° NNE
H-2A R/B 3.5 15:20:58 10° N 15:24:52 37° WNW 15:28:40 10° SW
RESURS DK-1 3.6 15:21:15 10° NW 15:24:53 27° NNE 15:25:46 25° NE
Cosmos 2074 Rocket 4.4 15:20:09 10° N 15:26:02 42° ENE 15:28:40 28° ESE
Cosmos 1633 3.9 15:23:23 10° N 15:25:25 24° NNE 15:25:25 24° NNE
COSMO-SKYMED 1 2.4 15:22:20 10° NNE 15:26:44 78° ESE 15:31:05 10° SSW
Cosmos 1302 Rocket 3.9 15:21:27 10° SSW 15:26:44 77° ESE 15:31:57 11° NE
Cosmos 1939 Rocket 4.4 15:24:48 10° SSW 15:28:29 37° W 15:32:08 10° NNW
SAR-Lupe-4 3.6 15:27:45 10° NNE 15:31:22 79° WNW 15:34:57 10° SSW
NOSS 2-1 (E) 3.6 15:29:22 10° W 15:33:00 62° N 15:34:32 37° NE
SJ-6B 3.4 15:33:57 40° ENE 15:33:57 40° ENE 15:37:51 10° N
Cosmos 1697 Rocket 3.0 15:31:04 10° S 15:36:18 42° ESE 15:37:53 34° ENE
CZ-4B R/B 2.6 15:33:25 10° N 15:36:33 42° WNW 15:39:35 10° SW
Cosmos 1898 Rocket 4.1 15:32:40 10° NNW 15:37:41 39° NE 15:38:53 35° ENE
Cosmos 1825 2.5 15:34:10 10° NNW 15:37:56 65° W 15:41:42 10° S
ERS-2 3.2 15:35:19 10° N 15:38:50 45° WNW 15:42:19 10° SW
Cosmos 1300 4.1 15:36:00 10° SW 15:39:37 39° WNW 15:43:15 10° N
EO 1 Delta rocket 4.3 15:34:52 10° NNE 15:39:38 40° E 15:39:38 40° E
Cosmos 1400 Rocket 3.3 15:36:31 10° SSW 15:40:36 62° WNW 15:44:37 10° NNE
S3M 3.8 15:34:51 10° S 15:40:58 76° E 15:47:12 10° NNE
NOSS 7 (H) 4.3 15:40:51 10° WNW 15:44:01 86° NNE 15:44:14 77° E
Cosmos 2315 Rocket 4.1 15:38:41 10° SSE 15:44:37 50° E 15:50:35 10° NNE
Helios 1A Rocket 4.5 15:41:35 10° SSW 15:45:25 37° W 15:49:15 10° NNW
YAOGAN 1 3.5 15:42:35 10° S 15:46:49 50° W 15:51:03 10° NNW
Cosmos 1766 Rocket 3.6 15:44:05 10° N 15:48:33 61° ENE 15:49:10 54° ESE
Meteor 2-1 Rocket 4.0 15:43:43 10° S 15:49:13 75° ESE 15:54:48 10° NNE
Okean 3 Rocket 3.4 15:47:02 10° N 15:51:25 67° ENE 15:52:04 58° ESE
SPOT 3 Rocket 4.0 15:51:40 40° ENE 15:52:03 41° ENE 15:56:57 10° NNW
Cosmos 44 3.1 15:48:53 10° SW 15:53:35 86° SE 15:55:01 47° ENE
Cosmos 1812 Rocket 3.4 15:49:27 10° S 15:53:48 70° E 15:58:10 10° NNE
Resurs 01 Rocket 2.8 15:56:30 28° NNE 15:56:30 28° NNE 15:59:22 10° N
CZ-4 R/B 3.0 15:52:57 10° SSW 15:56:30 34° W 16:00:03 10° NNW
Aureole 3 4.4 15:55:23 10° SW 15:58:07 33° WNW 16:01:01 10° N
Cosmos 2151 3.1 15:54:41 10° NNW 15:58:55 74° W 16:00:54 30° S
PSLV R/B 4.2 15:55:25 10° NNE 15:59:38 70° WNW 16:03:46 10° SSW
Cosmos 2369 Rocket 3.6 15:54:31 10° W 15:59:38 32° NNW 16:03:09 18° NE
Cosmos 1980 Rocket 3.4 15:54:50 10° S 15:57:31 25° SSE 15:57:31 25° SSE
SL-4 R/B 4.2 15:58:30 10° SW 16:00:23 14° SSW 16:00:57 13° SSW
MetOp-A 4.0 15:59:00 43° SE 16:00:42 69° ENE 16:06:04 10° NNW
ARIANE 5 R/B 4.3 16:02:29 22° NNE 16:02:29 22° NNE 16:04:50 10° N
Meteor 2-15 Rocket 4.4 15:56:02 10° S 16:02:13 88° ESE 16:08:24 10° NNE
Cosmos 1992 Rocket 3.8 15:58:09 10° SSW 16:03:20 69° ESE 16:05:12 40° NE
CZ-2C R/B 4.2 15:59:54 10° S 16:05:24 47° W 16:10:45 10° NNW
CRYOSAT 2 4.5 16:02:20 10° N 16:07:14 75° W 16:12:04 10° SSW
Cosmos 2154 Rocket 4.1 16:03:31 10° N 16:09:36 51° ENE 16:10:23 48° E
Cosmos 1553 Rocket 4.4 16:03:20 10° SSW 16:09:37 63° WNW 16:15:48 10° N
Genesis I 3.8 16:06:01 10° WNW 16:09:30 49° N 16:09:30 49° N
NOSS 3-4 (A) 4.5 16:06:56 10° WNW 16:13:22 48° SW 16:18:11 21° SSE
NOSS 3-4 (C) 4.5 16:07:03 10° WNW 16:13:29 48° SW 16:18:15 21° SSE
Cosmos 1315 Rocket 3.0 16:10:13 10° SSW 16:14:13 71° WNW 16:15:47 36° N
Ariane Rocket 2.9 16:13:29 50° SSE 16:14:51 88° ENE 16:20:00 10° NNW
Meteor 2-10 Rocket 3.8 16:13:38 10° SSW 16:18:48 67° WNW 16:23:52 10° NNE
Cosmos 220 Rocket 4.0 16:14:56 10° SSW 16:19:08 81° SW 16:19:08 81° SW
Cosmos 990 Rocket 4.0 16:14:24 10° NNW 16:19:40 63° NE 16:19:49 63° ENE
Cosmos 2360 4.2 16:17:12 10° SSW 16:22:32 61° SE 16:22:32 61° SE
SeaSat 1 3.4 16:20:50 25° S 16:23:17 45° WSW 16:28:04 10° NW
Cosmos 1408 Rocket 4.0 16:20:02 10° NNW 16:23:37 54° N 16:23:37 54° N
USA 215 3.6 16:22:49 40° SSE 16:24:54 54° SSW 16:31:20 10° W
NOSS 2-1 (C) 3.9 16:21:23 10° WNW 16:24:52 56° NNW 16:24:52 56° NNW
Cosmos 1441 Rocket 3.8 16:21:18 10° NNW 16:24:39 55° WNW 16:24:39 55° WNW
MOS 1 Rocket 3.2 16:20:38 10° NNE 16:25:16 85° WNW 16:30:10 10° SSW
Cosmos 1943 Rocket 3.6 16:21:30 10° WNW 16:26:13 28° N 16:28:10 23° NNE
H-2A R/B 3.3 16:21:07 10° SSW 16:26:18 43° W 16:31:32 10° NNW
Cosmos 1455 3.0 16:23:09 10° SSW 16:26:52 50° WNW 16:28:40 27° N
NOSS 3-3 (A) 4.0 16:22:35 10° SSW 16:28:33 57° SE 16:28:42 57° SE
NOSS 3-3 (C) 4.0 16:22:42 10° SSW 16:28:39 57° SE 16:28:46 57° SE
IRS-1A Rocket 4.3 16:27:59 41° S 16:29:58 77° WSW 16:35:31 10° NNW
NOSS 2-1 (D) 4.0 16:26:39 10° WNW 16:30:00 55° NNW 16:30:00 55° NNW
OBJECT-B 3.6 16:35:46 15° NNW 16:35:46 15° NNW 16:36:22 10° NNW
MOS 1 4.3 16:31:54 46° S 16:33:41 79° WSW 16:39:24 10° NNW
Meteor 2-3 Rocket 4.0 16:28:48 10° NNW 16:34:29 66° W 16:37:17 31° S
ATLAS 2AS CENTAUR R/B 3.6 16:28:06 10° WNW 16:35:20 47° SW 16:38:50 28° S
Resurs 1-3 4.3 16:37:00 46° N 16:37:00 46° N 16:40:08 10° NNW
ATLAS 5 CENTAUR R/B 2.0 16:31:02 10° WNW 16:35:52 67° NNE 16:36:03 66° NNE
COSMOS 2455 2.8 16:29:58 10° NW 16:36:02 67° NNE 16:36:35 63° ENE
CZ-2C R/B 3.9 16:33:45 10° NNE 16:36:23 28° NNE 16:36:23 28° NNE
Lacrosse 5 2.7 16:36:22 10° W 16:41:00 40° SSW 16:41:00 40° SSW
ARGOS 4.2 16:36:07 10° SSW 16:41:16 43° W 16:46:28 10° NNW
Cosmos 1610 Rocket 4.4 16:34:53 10° NNW 16:41:17 74° ENE 16:41:53 69° ESE
Cosmos 2278 Rocket 3.0 16:37:45 10° NW 16:43:04 38° NNE 16:43:08 38° NNE
Cosmos 1937 Rocket 3.8 16:38:52 10° NNW 16:43:18 58° N 16:43:18 58° N
Cosmos 1656 4.0 16:41:26 10° SW 16:47:02 64° NW 16:49:12 37° NNE
Cosmos 1295 Rocket 4.4 16:42:59 10° NNW 16:48:48 68° NE 16:48:48 68° NE
Cosmos 1844 Rocket 2.6 16:44:27 10° NW 16:50:00 80° NNE 16:50:00 80° NNE
Cosmos 2184 Rocket 4.1 16:47:33 10° NNW 16:53:53 76° W 16:55:37 50° S
ERS-1 Rocket 4.5 16:58:50 27° NNE 16:58:50 27° NNE 17:01:31 10° N
Terra 3.8 16:59:43 19° NNE 16:59:43 19° NNE 17:01:30 10° N
Cosmos 2369 3.7 16:51:56 10° SW 16:57:12 76° SW 16:57:12 76° SW
SJ 16-02 2.3 16:53:26 10° NW 16:56:44 46° WNW 16:56:44 46° WNW
Cosmos 2263 Rocket 3.5 16:56:20 10° NW 17:01:26 35° WSW 17:03:25 27° SSW
CZ-4C R/B 3.3 16:56:12 10° WNW 17:02:46 54° SW 17:04:27 46° S
RESURS DK-1 4.1 16:59:23 10° NW 17:01:39 31° NNW 17:01:39 31° NNW
Cosmos 1818 4.1 17:00:36 10° WNW 17:05:44 53° N 17:05:44 53° N
Cosmos 1844 3.8 17:02:26 10° NW 17:07:17 68° NW 17:07:17 68° NW
Cosmos 2074 Rocket 4.4 17:05:40 10° NNW 17:11:47 59° W 17:13:23 45° SW
Cosmos 2327 Rocket 4.5 17:09:15 10° NNW 17:15:23 75° W 17:15:25 75° WSW
Cosmos 1697 Rocket 3.1 17:14:33 10° SW 17:19:40 61° WNW 17:19:40 61° WNW
Cosmos 1898 Rocket 4.1 17:14:50 10° NW 17:19:10 55° WNW 17:19:10 55° WNW
Cosmos 2341 Rocket 4.2 17:18:15 10° NNW 17:23:21 60° N 17:23:21 60° N
SPOT 3 Rocket 4.4 17:32:20 47° WNW 17:32:20 47° WNW 17:36:34 10° NNW
Resurs 01 Rocket 3.6 17:34:04 27° NNW 17:34:04 27° NNW 17:36:10 10° NNW
Cosmos 1980 Rocket 4.2 17:38:04 10° SW 17:39:22 17° SW 17:39:22 17° SW
Cosmos 2369 Rocket 3.7 17:40:11 10° NW 17:44:55 30° N 17:44:55 30° N
Cosmos 1943 Rocket 3.8 18:06:22 10° NW 18:09:40 28° NNW 18:09:40 28° NNW
CZ-2C R/B 4.2 18:14:18 10° N 18:17:53 32° NNW 18:17:53 32° NNW
ATLAS 5 CENTAUR R/B 4.0 18:15:35 10° WNW 18:17:34 25° WNW 18:17:34 25° WNW
COSMOS 2455 4.2 18:16:06 10° NW 18:19:43 35° WNW 18:19:43 35° WNW
Cosmos 2278 Rocket 3.8 18:22:05 10° NW 18:24:58 31° NW 18:24:58 31° NW
Terra 4.4 18:38:36 17° NNW 18:38:36 17° NNW 18:39:42 10° NNW
SJ 16-02 4.5 18:33:26 10° WNW 18:33:43 11° WNW 18:33:43 11° WNW
Cosmos 2369 Rocket 4.4 19:24:51 10° NW 19:26:42 21° NNW 19:26:42 21° NNW
SL-16 R/B 4.4 21:08:45 25° N 21:08:45 25° N 21:11:18 10° NNW
Cosmos 2322 Rocket 4.5 21:49:19 20° NE 21:49:19 20° NE 21:51:30 10° NE
ADEOS II 4.4 22:17:18 10° NNE 22:19:33 20° NE 22:19:33 20° NE
SL-16 R/B 4.1 22:26:11 26° NNE 22:26:11 26° NNE 22:29:39 10° ENE
COSMOS 2428 4.5 22:38:11 27° NNE 22:38:11 27° NNE 22:41:36 10° NE
Cosmos 2333 Rocket 4.0 22:39:05 27° NNE 22:39:05 27° NNE 22:42:31 10° NE
Cosmos 2237 Rocket 4.0 22:41:41 27° NNE 22:41:41 27° NNE 22:44:37 10° NE
Resurs 1-4 Rocket 4.0 22:36:29 10° NNE 22:38:48 26° NNE 22:38:48 26° NNE
Cosmos 2360 Rocket 4.0 22:47:06 27° NNE 22:47:06 27° NNE 22:51:09 10° ENE
Cosmos 1980 Rocket 4.0 23:02:29 23° E 23:02:29 23° E 23:04:45 10° ESE
CZ-2D R/B 3.8 23:01:56 10° NNE 23:04:24 29° NNE 23:04:24 29° NNE
SL-16 R/B 3.6 23:09:25 33° NNE 23:09:25 33° NNE 23:12:49 10° NE
Cosmos 2219 Rocket 3.8 23:11:30 28° N 23:11:30 28° N 23:15:54 10° NE
Cosmos 2322 Rocket 3.5 23:31:09 33° N 23:32:07 35° NNE 23:37:19 10° E
ARIANE 5 R/B 3.8 23:30:18 10° NNE 23:34:09 37° ENE 23:34:09 37° ENE
Lacrosse 4 Rocket 4.1 23:39:17 14° E 23:39:17 14° E 23:40:40 10° ENE
ADEOS Rocket 3.5 23:34:14 10° SE 23:39:33 50° ENE 23:45:14 10° NNW
USA 234 4.1 23:36:57 10° ENE 23:42:51 38° SE 23:42:51 38° SE
Cosmos 1867 4.2 23:51:40 53° NE 23:51:40 53° NE 23:55:52 10° ENE
